Weather in Semenov

Russia / Voronezh Oblast     51°15′05″N   38°27′04″E
temp.,
°C
wind,
m/s
gust,
m/s
humid.,
%
clouds,
%
prec.,
mm/h
press.,
hPa
HPBL,
m
3 march, wed
wed300:000nnw61097100 1.0 1012620
03:00−1nnw6139184 1.1 1014553
06:00−1nnw7118592 0.1 1015806
09:00−2nnw8128494 0.1 1018987
12:00−1nnw7107593 0.1 10191042
15:00−1nw697179 0.1 1020951
18:00−2wnw49840 0.0 1020332
21:00−2w511900 0.0 1021442
4 march, thu
thu400:00−1w5129254 0.0 1019521
03:00−2wsw6129369 0.0 1018403
06:00−2wsw6139125 0.0 1016384
09:000wsw7138313 0.0 1014546
12:00+3wsw813670 0.0 1012798
15:00+4wsw914640 0.0 1009946
18:00+3sw7167933 0.0 1007647
21:00+3wsw7178466 0.0 1005699
5 march, fri
fri500:00+3wsw61393100 0.3 1005510
03:00+2wsw61296100 0.8 1004623
06:00+2w7139088 0.0 1005777
09:00+1w6119084 0.1 1006703
12:00+3w6877100 0.1 1008910
15:00+1nw4596100 0.3 1009345
18:00−1nne4695100 1.1 1010405
21:00−2nne4792100 1.8 1011497
6 march, sat
sat600:00−2nne4781100 0.1 1013610
03:00−3n488096 0.1 1014492
06:00−4n367853 0.0 1016402
09:00−3nw357960 0.0 1017433
12:00−1nw456557 0.0 1017956
15:00−1nw355670 0.1 10171207
18:00−2nw486393 0.4 1017513
21:00−3w366790 0.6 1018740
7 march, sun
sun700:00−4nw478056 0.1 1019609
03:00−5nw477750 0.1 1019653
06:00−6wsw49750 0.0 1019551
09:00−4wsw8135731 0.0 10171024
12:00−2wsw10154995 0.0 10141181
15:000wsw11174995 0.0 10111349
18:000wsw91760100 0.0 10081330
21:00−1wsw91671100 0.0 10071138